,

(GMT )
Munich

Weather History for EDDM - July, 2013

Change the Weather History Date:

Monday, July 8, 2013

  Actual Average Record
Temperature  
Mean Temperature 68 °F -  
Max Temperature 77 °F 70 °F 86 °F (2017)
Min Temperature 59 °F 53 °F 48 °F (1996)
Cooling Degree Days 3    
Growing Degree Days 18 (Base 50)    
Moisture  
Dew Point 56 °F    
Average Humidity 65    
Maximum Humidity 88    
Minimum Humidity 41    
Precipitation  
Precipitation 0.00 in - - ()
Sea Level Pressure  
Sea Level Pressure 30.33 in    
Wind  
Wind Speed 8 mph ()    
Max Wind Speed 14 mph    
Max Gust Speed 25 mph    
Visibility 6.2 miles    
Events      
Averages and records for this station are not official NWS values.
T = Trace of Precipitation, MM = Missing Value Source: Averaged Metar Reports

Daily Weather History Graph

Daily Weather History Graph

Search for Another Location

Airport or City:

Trip Planner

Search our weather history database for the weather conditions in past years. The results will help you decide how hot, cold, wet, or windy it might be!

Date:

Astronomy

Jul. 08, 2013 Rise Set
Actual Time 5:22 AM CEST 9:13 PM CEST
Civil Twilight 4:41 AM CEST 9:54 PM CEST
Nautical Twilight 3:46 AM CEST 10:49 PM CEST
Astronomical Twilight 2:21 AM CEST 12:13 AM CEST
Moon 5:43 AM CEST (7/8) 8:57 PM CEST (7/8)
Length of Visible Light 17h 12m
Length of Day
15h 51m
New Moon, 0% of the Moon is Illuminated
Jul 8
New Moon
Jul 16
First Quarter
Jul 22
Full
Jul 29
Last Quarter
Aug 6
New

Hourly Weather History & Observations

Time (CEST) Temp. Dew Point Humidity Pressure Visibility Wind Dir Wind Speed Gust Speed Precip Events Conditions
12:20 AM 64.4 °F 57.2 °F 77% 30.36 in - NE 6.9 mph - N/A   Clear
12:50 AM 64.4 °F 57.2 °F 77% 30.36 in 6.2 mi NE 6.9 mph - N/A   Scattered Clouds
1:20 AM 62.6 °F 57.2 °F 82% 30.36 in 6.2 mi NE 8.1 mph - N/A   Scattered Clouds
1:50 AM 62.6 °F 57.2 °F 82% 30.36 in - NE 6.9 mph - N/A   Clear
2:20 AM 62.6 °F 57.2 °F 82% 30.36 in - NE 6.9 mph - N/A   Clear
2:50 AM 62.6 °F 57.2 °F 82% 30.36 in - NE 6.9 mph - N/A   Clear
3:20 AM 62.6 °F 55.4 °F 77% 30.33 in - NE 8.1 mph - N/A   Clear
3:50 AM 60.8 °F 55.4 °F 82% 30.33 in - NE 6.9 mph - N/A   Clear
4:20 AM 60.8 °F 55.4 °F 82% 30.33 in - NE 6.9 mph - N/A   Clear
4:50 AM 60.8 °F 55.4 °F 82% 30.33 in - NE 6.9 mph - N/A   Clear
5:20 AM 59.0 °F 55.4 °F 88% 30.33 in - NE 6.9 mph - N/A   Clear
5:50 AM 59.0 °F 53.6 °F 82% 30.33 in - NE 5.8 mph - N/A   Clear
6:20 AM 59.0 °F 55.4 °F 88% 30.33 in - NE 8.1 mph - N/A   Clear
6:50 AM 60.8 °F 55.4 °F 82% 30.33 in - NE 8.1 mph - N/A   Clear
7:20 AM 62.6 °F 55.4 °F 77% 30.36 in - NE 8.1 mph - N/A   Clear
7:50 AM 64.4 °F 57.2 °F 77% 30.36 in - NE 9.2 mph - N/A   Clear
8:20 AM 66.2 °F 57.2 °F 73% 30.36 in - ENE 9.2 mph - N/A   Clear
8:50 AM 68.0 °F 57.2 °F 68% 30.36 in - ENE 8.1 mph - N/A   Clear
9:20 AM 68.0 °F 57.2 °F 68% 30.36 in - East 11.5 mph - N/A   Clear
9:50 AM 69.8 °F 57.2 °F 64% 30.36 in - East 11.5 mph - N/A   Clear
10:20 AM 71.6 °F 59.0 °F 64% 30.36 in - East 13.8 mph - N/A   Clear
10:50 AM 71.6 °F 59.0 °F 64% 30.36 in - East 13.8 mph - N/A   Clear
11:20 AM 73.4 °F 59.0 °F 61% 30.36 in - East 12.7 mph - N/A   Clear
11:50 AM 73.4 °F 59.0 °F 61% 30.36 in 6.2 mi East 11.5 mph 25.3 mph N/A   Mostly Cloudy
12:20 PM 73.4 °F 57.2 °F 57% 30.36 in 6.2 mi ENE 10.4 mph - N/A   Mostly Cloudy
12:50 PM 73.4 °F 55.4 °F 53% 30.36 in 6.2 mi ENE 13.8 mph - N/A   Mostly Cloudy
1:20 PM 73.4 °F 53.6 °F 50% 30.36 in 6.2 mi ENE 12.7 mph - N/A   Mostly Cloudy
1:50 PM 75.2 °F 55.4 °F 50% 30.33 in 6.2 mi ENE 11.5 mph - N/A   Mostly Cloudy
2:20 PM 75.2 °F 53.6 °F 47% 30.33 in - NE 11.5 mph - N/A   Clear
2:50 PM 77.0 °F 57.2 °F 50% 30.33 in - ENE 10.4 mph - N/A   Clear
3:20 PM 75.2 °F 51.8 °F 44% 30.33 in - ENE 9.2 mph - N/A   Clear
3:50 PM 77.0 °F 51.8 °F 41% 30.33 in - ENE 9.2 mph - N/A   Clear
4:20 PM 77.0 °F 55.4 °F 47% 30.30 in - NE 11.5 mph - N/A   Clear
4:50 PM 77.0 °F 51.8 °F 41% 30.30 in - NE 12.7 mph - N/A   Clear
5:20 PM 77.0 °F 51.8 °F 41% 30.30 in - NE 13.8 mph - N/A   Clear
5:50 PM 77.0 °F 53.6 °F 44% 30.30 in - NE 11.5 mph - N/A   Clear
6:20 PM 75.2 °F 51.8 °F 44% 30.27 in - ENE 11.5 mph - N/A   Clear
6:50 PM 75.2 °F 51.8 °F 44% 30.27 in - East 9.2 mph - N/A   Clear
7:20 PM 75.2 °F 53.6 °F 47% 30.27 in - East 8.1 mph - N/A   Clear
7:50 PM 73.4 °F 55.4 °F 53% 30.27 in - East 6.9 mph - N/A   Clear
8:20 PM 71.6 °F 55.4 °F 57% 30.30 in - East 5.8 mph - N/A   Clear
8:50 PM 69.8 °F 55.4 °F 60% 30.30 in - NNE 3.5 mph - N/A   Clear
9:20 PM 68.0 °F 57.2 °F 68% 30.30 in - NE 6.9 mph - N/A   Clear
9:50 PM 68.0 °F 57.2 °F 68% 30.30 in - NE 8.1 mph - N/A   Clear
10:20 PM 68.0 °F 57.2 °F 68% 30.30 in - NE 8.1 mph - N/A   Clear
10:50 PM 66.2 °F 55.4 °F 68% 30.30 in - NE 5.8 mph - N/A   Clear
11:20 PM 64.4 °F 55.4 °F 73% 30.30 in - NE 5.8 mph - N/A   Clear
11:50 PM 64.4 °F 55.4 °F 73% 30.30 in - NE 6.9 mph - N/A   Clear